File timestamp: Mon Aug 22 15:00:00 2016, Internal temp: 15.3350830078125
1471878001, -0.00365225854329765, -0.0177076086401939, 0.0160101465880871, 33636, 32524, 23212, -55.6437110900879
1471878001, -0.00787981506437063, -0.017724797129631, 0.0163739994168282, 33632, 32515, 23212, NaN
1471878002.008, -0.0117408130317926, -0.0172851961106062, 0.0170559007674456, 33633, 32512, 23209, NaN
1471878003.008, -0.014505572617054, -0.0166161619126797, 0.0159363485872746, 33621, 32520, 23217, NaN
1471878004.008, -0.0154953496530652, -0.0168793592602015, 0.0155004197731614, 33642, 32502, 23207, NaN
1471878005.008, -0.0140964705497026, -0.0166816227138042, 0.0158552378416061, 33635, 32503, 23209, NaN
1471878005.008, -0.0130826504901052, -0.0171373374760151, 0.0165386833250523, 33629, 32505, 23214, NaN
1471878006.014, -0.0113154137507081, -0.0166178047657013, 0.016501409932971, 33640, 32501, 23206, NaN
1471878007.014, -0.0083236750215292, -0.0165960248559713, 0.0167541075497866, 33619, 32517, 23223, NaN
1471878008.014, -0.00548787834122777, -0.01591931656003, 0.0164987426251173, 33629, 32510, 23210, NaN
1471878009.014, -0.00205592368729413, -0.0159187074750662, 0.0164691917598248, 33628, 32514, 23215, NaN
1471878010.014, 0.0015562130138278, -0.0157307870686054, 0.0161622930318117, 33634, 32505, 23212, NaN
1471878011.014, 0.00517776515334845, -0.0160527769476175, 0.0159898735582829, 33642, 32513, 23196, NaN
1471878012.014, 0.00911103282123804, -0.0166668370366096, 0.0169161409139633, 33634, 32511, 23202, NaN
1471878013.014, 0.0141486451029778, -0.0175880491733551, 0.0159200821071863, 33635, 32509, 23189, NaN
1471878014.014, 0.0192227065563202, -0.0180158577859402, 0.0153801674023271, 33629, 32521, 23208, NaN
1471878015.014, 0.0244823973625898, -0.0185336750000715, 0.0151619389653206, 33633, 32506, 23209, NaN
1471878016.014, 0.028847998008132, -0.0184808652848005, 0.0151041196659207, 33635, 32519, 23202, NaN
1471878017.014, 0.0323761478066444, -0.0178240705281496, 0.0163745395839214, 33637, 32512, 23217, NaN
1471878018.014, 0.0354493036866188, -0.0175493936985731, 0.0158116463571787, 33633, 32517, 23217, NaN
1471878019.014, 0.037321574985981, -0.0175542254000902, 0.0152887441217899, 33623, 32515, 23218, NaN
1471878020.014, 0.0377988182008266, -0.0171774812042713, 0.0147318867966533, 33628, 32516, 23214, NaN
1471878021.022, 0.0380490608513355, -0.0161050036549568, 0.0149426329880953, 33638, 32513, 23204, NaN
1471878022.022, 0.0378624573349953, -0.0157281067222357, 0.014572094194591, 33632, 32505, 23207, NaN
1471878023.022, 0.0371205247938633, -0.0159789025783539, 0.0141953676939011, 33635, 32518, 23201, NaN
1471878024.022, 0.038878820836544, -0.0156325772404671, 0.0139055978506804, 33646, 32507, 23211, NaN
1471878024.022, 0.04777667298913, -0.0159084964543581, 0.0141659956425428, 33629, 32508, 23218, NaN
1471878025.03, 0.0653034970164299, -0.0158461071550846, 0.0144753865897655, 33642, 32515, 23202, NaN
1471878026.03, 0.0926317274570465, -0.0155384037643671, 0.0142721580341458, 33626, 32512, 23209, NaN
1471878027.03, 0.129686713218689, -0.0159538816660643, 0.0142292669042945, 33631, 32514, 23210, NaN
1471878028.03, 0.171708479523659, -0.0159520041197538, 0.0141859445720911, 33636, 32504, 23206, NaN
1471878029.03, 0.123141124844551, -0.0160072166472673, 0.0141664231196046, 33647, 32516, 23206, NaN
1471878030.03, 0.0807816833257675, -0.0160128213465214, 0.0143866492435336, 33622, 32516, 23217, NaN
1471878031.03, 0.0442535281181335, -0.0152133693918586, 0.0135826393961906, 33628, 32512, 23220, NaN
1471878032.03, 0.0131701109930873, -0.0147936921566725, 0.0132390819489956, 33625, 32518, 23215, NaN
1471878033.03, -0.0128619018942118, -0.0147799048572779, 0.0133021380752325, 33641, 32509, 23206, NaN
1471878034.03, -0.034239336848259, -0.0147218927741051, 0.0136886909604073, 33640, 32507, 23204, NaN
1471878035.03, -0.051359161734581, -0.0149972420185804, 0.0137446392327547, 33640, 32507, 23197, NaN
1471878036.03, -0.0646151825785637, -0.01602952927351, 0.0131812887266278, 33641, 32517, 23199, NaN
1471878037.03, -0.0743948817253113, -0.0153976287692785, 0.0137286996468902, 33631, 32508, 23212, NaN
1471878038.03, -0.08107640594244, -0.015374606475234, 0.0140125332400203, 33637, 32512, 23215, NaN
1471878039.03, -0.0850258842110634, -0.0152286421507597, 0.0137344840914011, 33629, 32509, 23202, NaN
1471878040.03, -0.0865949690341949, -0.0147306248545647, 0.0144905457273126, 33640, 32506, 23200, NaN
1471878041.03, -0.0861187279224396, -0.0146363228559494, 0.0145335039123893, 33631, 32518, 23203, NaN
1471878042.03, -0.0839138478040695, -0.0147295482456684, 0.0144550018012524, 33640, 32513, 23207, NaN
1471878043.03, -0.0802771970629692, -0.0143617121502757, 0.0139401173219085, 33637, 32512, 23210, NaN
1471878044.03, -0.0754847154021263, -0.0143385687842965, 0.0137763526290655, 33646, 32505, 23212, NaN
1471878045.03, -0.0697906315326691, -0.013639148324728, 0.0135652385652065, 33634, 32508, 23208, NaN
1471878046.03, -0.0634269937872887, -0.014102197252214, 0.0131202265620232, 33638, 32514, 23192, NaN
1471878047.03, -0.0566035136580467, -0.0144246304407716, 0.0134200248867273, 33635, 32500, 23209, NaN
1471878048.03, -0.0495076552033424, -0.014377174898982, 0.0134195238351822, 33636, 32519, 23216, NaN
1471878049.04, -0.0423050001263618, -0.014657654799521, 0.0132915563881397, 33651, 32504, 23195, NaN
1471878050.04, -0.0351398251950741, -0.0152155160903931, 0.013112467713654, 33622, 32505, 23213, NaN
1471878051.04, -0.0281358696520329, -0.0145673491060734, 0.0136548606678843, 33644, 32507, 23194, NaN
1471878052.04, -0.0213972739875317, -0.0143491569906473, 0.0136461984366179, 33640, 32515, 23216, NaN
1471878052.04, -0.0150096630677581, -0.014353571459651, 0.0139760058373213, 33636, 32516, 23217, NaN
1471878053.048, -0.00904132705181837, -0.0138854524120688, 0.0142774060368538, 33634, 32508, 23216, NaN
1471878054.048, -0.0035445021931082, -0.0139785604551435, 0.0143659533932805, 33636, 32511, 23207, NaN
1471878055.048, 0.00144330563489348, -0.0141137484461069, 0.0138812251389027, 33641, 32514, 23199, NaN
1471878056.048, 0.00589794525876641, -0.0147507376968861, 0.013137393631041, 33641, 32520, 23204, NaN
1471878056.048, 0.00980724114924669, -0.0139779737219214, 0.0134556517004967, 33633, 32517, 23209, -55.6362648010254
1471878057.054, 0.0131696155294776, -0.0138493860140443, 0.0145097430795431, 33637, 32515, 23207, NaN
1471878058.054, 0.0159927289932966, -0.0142051046714187, 0.0145392650738358, 33645, 32505, 23214, NaN
1471878059.054, 0.0182921700179577, -0.0141117256134748, 0.0146861514076591, 33635, 32504, 23203, NaN
1471878060.054, 0.0195137429982424, -0.0144507586956024, 0.0152188334614038, 33633, 32520, 23214, NaN
1471878060.054, 0.0158617626875639, -0.0151998959481716, 0.0151927508413792, 33638, 32511, 23210, NaN
1471878061.058, 0.00898077618330717, -0.0149983456358314, 0.0145280351862311, 33632, 32510, 23204, NaN
1471878062.058, -0.00032953594927676, -0.0153288403525949, 0.0143253598362207, 33637, 32510, 23206, NaN
1471878063.058, -0.0108808083459735, -0.0156466383486986, 0.013976170681417, 33629, 32512, 23199, NaN
1471878064.058, -0.0206983182579279, -0.0160072445869446, 0.0139289703220129, 33627, 32505, 23211, NaN
1471878065.058, -0.0296388678252697, -0.0163634233176708, 0.0150122856721282, 33627, 32514, 23215, NaN
1471878066.058, -0.0372463129460812, -0.0165600478649139, 0.015355103649199, 33626, 32502, 23212, NaN
1471878067.058, -0.0429527424275875, -0.0172395259141922, 0.0148978931829333, 33635, 32509, 23211, NaN
1471878068.058, -0.0455763451755047, -0.0168262589722872, 0.0151720996946096, 33629, 32518, 23205, NaN
1471878069.058, -0.044833991676569, -0.0167781095951796, 0.0147263091057539, 33627, 32514, 23209, NaN
1471878070.058, -0.0412306375801563, -0.0160501785576344, 0.0145509336143732, 33631, 32500, 23213, NaN
1471878071.058, -0.0359656028449535, -0.0161053966730833, 0.0141194770112634, 33636, 32508, 23201, NaN
1471878072.058, -0.0284414421766996, -0.0168189033865929, 0.0146911926567554, 33638, 32513, 23205, NaN
1471878073.058, -0.0199611037969589, -0.0168603789061308, 0.0150812808424234, 33626, 32511, 23224, NaN
1471878074.058, -0.0111152771860361, -0.0166863817721605, 0.015625512227416, 33638, 32503, 23202, NaN
1471878075.058, -0.000842506473418325, -0.0170093514025211, 0.0152882095426321, 33630, 32511, 23205, NaN
1471878076.068, 0.0103411665186286, -0.0167286209762096, 0.0157798212021589, 33643, 32513, 23205, NaN
1471878077.068, 0.0210750177502632, -0.0166030302643776, 0.0161543451249599, 33631, 32504, 23201, NaN
1471878078.068, 0.0323635451495647, -0.0162097979336977, 0.0163105055689812, 33638, 32518, 23201, NaN
1471878079.068, 0.0434518754482269, -0.0161560010164976, 0.0164778809994459, 33632, 32518, 23209, NaN
1471878079.068, 0.0528176948428154, -0.0159983448684216, 0.0161782167851925, 33627, 32514, 23212, NaN
1471878080.076, 0.0618957467377186, -0.015846773982048, 0.016879890114069, 33622, 32512, 23214, NaN
1471878081.076, 0.0687443390488625, -0.0162898413836956, 0.018463633954525, 33623, 32509, 23206, NaN
1471878082.076, 0.0738452300429344, -0.0166275817900896, 0.0179695151746273, 33634, 32501, 23197, NaN
1471878083.076, 0.0775346159934998, -0.0165284238755703, 0.0182745438069105, 33637, 32507, 23200, NaN
1471878083.076, 0.0799409970641136, -0.0163157116621733, 0.0174356363713741, 33631, 32501, 23200, NaN
1471878084.082, 0.0803438574075699, -0.0169271063059568, 0.016447976231575, 33634, 32516, 23205, NaN
1471878085.082, 0.0800592824816704, -0.0165993012487888, 0.0167257748544216, 33637, 32505, 23211, NaN
1471878086.082, 0.078757219016552, -0.0167172756046057, 0.0163952149450779, 33631, 32508, 23214, NaN
1471878087.082, 0.0762036591768265, -0.0169289130717516, 0.0164791941642761, 33634, 32510, 23202, NaN
1471878088.082, 0.0720916241407394, -0.0164027512073517, 0.0165490601211786, 33651, 32515, 23198, NaN
1471878089.082, 0.0678286477923393, -0.0166050642728806, 0.016677500680089, 33627, 32513, 23214, NaN
1471878090.082, 0.0623458810150623, -0.0164822414517403, 0.0164892431348562, 33642, 32511, 23193, NaN
1471878091.084, 0.0549816899001598, -0.016181817278266, 0.0161738507449627, 33639, 32514, 23202, NaN
1471878092.08, 0.046620924025774, -0.0160699505358934, 0.0162407904863358, 33625, 32513, 23212, NaN
1471878093.08, 0.0373299606144428, -0.0163153205066919, 0.016320725902915, 33625, 32507, 23215, NaN
1471878094.08, 0.0278097912669182, -0.0168945398181677, 0.0161955878138542, 33634, 32519, 23210, NaN
1471878095.08, 0.0189733095467091, -0.0172314271330833, 0.016465051099658, 33639, 32517, 23196, NaN
1471878096.08, 0.0108891138806939, -0.0174222327768803, 0.0159269850701094, 33631, 32516, 23204, NaN
1471878097.08, 0.00356300477869809, -0.0171365812420845, 0.0157434400171041, 33637, 32517, 23210, NaN
1471878098.08, -0.00253428681753576, -0.0178744830191135, 0.0156539902091026, 33641, 32511, 23201, NaN
1471878099.08, -0.00775184528902173, -0.0170670617371798, 0.0151577778160572, 33645, 32511, 23208, NaN
1471878100.08, -0.0127643113955855, -0.0169273763895035, 0.0157588720321655, 33631, 32515, 23209, NaN
1471878101.08, -0.0185679011046886, -0.0165507085621357, 0.0166865047067404, 33634, 32506, 23201, NaN
1471878102.08, -0.0246960502117872, -0.0162138566374779, 0.0172194316983223, 33642, 32519, 23212, NaN
1471878103.088, -0.02998729608953, -0.0154189681634307, 0.0173586644232273, 33644, 32516, 23206, NaN
1471878104.088, -0.0344747751951218, -0.0155194588005543, 0.0176835563033819, 33624, 32510, 23219, NaN
1471878105.088, -0.039185494184494, -0.0151321236044168, 0.0171943586319685, 33630, 32523, 23204, NaN
1471878106.088, -0.0432182885706425, -0.0149371605366468, 0.0173455718904734, 33627, 32516, 23204, NaN
1471878106.088, -0.0455013997852802, -0.0142666772007942, 0.017402671277523, 33640, 32521, 23217, NaN
1471878107.096, -0.0464021116495132, -0.0142986625432968, 0.0169851407408714, 33636, 32524, 23201, NaN
1471878108.096, -0.0457727685570717, -0.0134589476510882, 0.0169341918081045, 33642, 32509, 23208, NaN
1471878109.096, -0.0446001999080181, -0.0143963694572449, 0.0168939903378487, 33643, 32522, 23210, NaN
1471878110.096, -0.0433223322033882, -0.0151536669582129, 0.0171424094587564, 33638, 32509, 23208, NaN
1471878110.096, -0.0419433005154133, -0.0152758182957768, 0.01699298620224, 33627, 32519, 23212, NaN
1471878111.102, -0.0406277626752853, -0.0151589224115014, 0.017182806506753, 33633, 32514, 23215, -54.6919326782227
1471878112.102, -0.0383591651916504, -0.01575249992311, 0.0168452952057123, 33630, 32515, 23220, NaN
1471878113.102, -0.0363708212971687, -0.01584093272686, 0.018092779442668, 33636, 32512, 23205, NaN
1471878114.102, -0.0339158326387405, -0.015987703576684, 0.0187380146235228, 33633, 32502, 23214, NaN
1471878115.102, -0.0298275612294674, -0.0165551882237196, 0.0187557861208916, 33632, 32526, 23199, NaN
1471878116.102, -0.0225843470543623, -0.0167640764266253, 0.0185915790498257, 33640, 32510, 23210, NaN
1471878117.102, -0.00907822884619236, -0.0167351569980383, 0.0184371843934059, 33631, 32510, 23219, NaN
1471878118.102, 0.0112403221428394, -0.0171883050352335, 0.0182825122028589, 33630, 32521, 23223, NaN
1471878119.102, 0.0379515662789345, -0.0171705558896065, 0.0186238512396812, 33630, 32518, 23222, NaN
1471878120.102, 0.0701683983206749, -0.0180278997868299, 0.0191691089421511, 33638, 32510, 23208, NaN
1471878121.102, 0.106931626796722, -0.018554275855422, 0.0189867429435253, 33643, 32511, 23202, NaN
1471878122.102, 0.14486762881279, -0.0191528368741274, 0.0189502630382776, 33634, 32530, 23211, NaN
1471878123.102, 0.182048127055168, -0.0190907903015614, 0.0192372370511293, 33644, 32513, 23204, NaN
1471878124.102, 0.13453808426857, -0.01887939684093, 0.0186490118503571, 33641, 32506, 23203, NaN
1471878125.102, 0.0812746360898018, -0.0183853637427092, 0.0191611256450415, 33630, 32518, 23201, NaN
1471878126.102, 0.0364248491823673, -0.0191292613744736, 0.0194582156836987, 33636, 32510, 23203, NaN
1471878127.102, -0.00073320308001712, -0.018698662519455, 0.0194051284343004, 33639, 32509, 23209, NaN
1471878128.102, -0.0309037733823061, -0.0180879980325699, 0.0191380772739649, 33632, 32523, 23207, NaN
1471878129.11, -0.0547705702483654, -0.0175775606185198, 0.0190018564462662, 33636, 32513, 23197, NaN
1471878130.1, -0.0729938820004463, -0.0183246359229088, 0.0182538144290447, 33638, 32521, 23210, NaN
1471878131.108, -0.0862078368663788, -0.0186696983873844, 0.018421845510602, 33646, 32507, 23203, NaN
1471878132.108, -0.0950178280472755, -0.0181615389883518, 0.0172856505960226, 33634, 32520, 23211, NaN
1471878133.108, -0.0999982729554176, -0.0180945936590433, 0.0165771562606096, 33639, 32505, 23205, NaN
1471878134.108, -0.101690672338009, -0.0182445645332336, 0.0162790305912495, 33634, 32505, 23221, NaN
1471878134.108, -0.100602045655251, -0.0177262499928474, 0.0163533147424459, 33635, 32515, 23205, NaN
1471878135.116, -0.0972037762403488, -0.0179569814354181, 0.0170871373265982, 33635, 32508, 23201, NaN
1471878136.116, -0.0919308364391327, -0.0181386470794678, 0.0165364481508732, 33640, 32518, 23209, NaN
1471878137.116, -0.085181400179863, -0.019008731469512, 0.0159969143569469, 33643, 32519, 23209, NaN
1471878138.116, -0.0773168504238129, -0.018107121810317, 0.0159167945384979, 33629, 32513, 23208, NaN
1471878138.116, -0.0686621516942978, -0.0183867122977972, 0.0150584485381842, 33639, 32525, 23205, NaN
1471878139.122, -0.0595065429806709, -0.0183701049536467, 0.0154916141182184, 33641, 32514, 23204, NaN
1471878140.122, -0.0501045361161232, -0.0185502544045448, 0.0158372037112713, 33633, 32510, 23194, NaN
1471878141.122, -0.0406771972775459, -0.0186502020806074, 0.0163200087845325, 33627, 32514, 23216, NaN
1471878142.122, -0.0314136482775211, -0.0184314660727978, 0.0162258557975292, 33628, 32521, 23210, NaN
1471878142.122, -0.0224727634340525, -0.0191390048712492, 0.0160167012363672, 33632, 32504, 23207, NaN
1471878143.126, -0.0139850443229079, -0.019000917673111, 0.0160505082458258, 33624, 32534, 23210, NaN
1471878144.126, -0.00605460023507476, -0.0191368106752634, 0.0162018500268459, 33625, 32506, 23215, NaN
1471878145.126, 0.00123876903671771, -0.0184749346226454, 0.0162248946726322, 33636, 32511, 23204, NaN
1471878146.126, 0.00783744640648365, -0.018106484785676, 0.0166908781975508, 33633, 32512, 23219, NaN
1471878147.126, 0.0137038361281157, -0.0184544920921326, 0.0166628230363131, 33627, 32506, 23213, NaN
1471878148.126, 0.0188182163983583, -0.0182572845369577, 0.016727190464735, 33622, 32512, 23214, NaN
1471878149.126, 0.023176608607173, -0.0178917646408081, 0.0169798284769058, 33635, 32516, 23199, NaN
1471878150.126, 0.0267887189984322, -0.0174779798835516, 0.0155958151444793, 33648, 32509, 23200, NaN
1471878151.126, 0.0296092908829451, -0.0167853105813265, 0.0160793010145426, 33633, 32519, 23209, NaN
1471878152.126, 0.029571495950222, -0.01715924218297, 0.0158575624227524, 33633, 32510, 23209, NaN
1471878153.126, 0.02726199477911, -0.0171814393252134, 0.015442343428731, 33633, 32517, 23211, NaN
1471878154.126, 0.0230991654098034, -0.0172652881592512, 0.0157017651945353, 33651, 32512, 23199, NaN
1471878155.126, 0.0173417590558529, -0.0176176708191633, 0.0164689794182777, 33640, 32496, 23202, NaN
1471878156.126, 0.0112790483981371, -0.0170249305665493, 0.0163575299084187, 33628, 32508, 23200, NaN
1471878157.134, 0.00454246392473578, -0.0169335231184959, 0.0159092228859663, 33634, 32511, 23211, NaN
1471878158.134, -0.00218779197894037, -0.0167358312755823, 0.0161764454096556, 33635, 32510, 23205, NaN
1471878159.134, -0.00766074471175671, -0.0170622505247593, 0.0160699635744095, 33638, 32508, 23211, NaN
1471878160.134, -0.011662888340652, -0.0168120078742504, 0.0162122845649719, 33630, 32510, 23211, NaN
1471878160.134, -0.0139733627438545, -0.0167891457676888, 0.0164658669382334, 33633, 32516, 23229, NaN
1471878161.142, -0.0147172138094902, -0.016034547239542, 0.0173607859760523, 33639, 32514, 23205, NaN
1471878162.142, -0.0145693589001894, -0.0156490989029408, 0.017894335091114, 33633, 32518, 23209, NaN
1471878163.142, -0.0134544102475047, -0.016305960714817, 0.0177568458020687, 33639, 32519, 23202, NaN
1471878164.142, -0.0101921800523996, -0.016620485112071, 0.0177491065114737, 33633, 32515, 23202, NaN
1471878165.142, -0.00566645245999098, -0.0165183860808611, 0.0176331121474504, 33633, 32520, 23209, NaN
1471878166.142, -0.000535718107130378, -0.016278138384223, 0.0172402523458004, 33641, 32519, 23194, NaN
1471878167.142, 0.00588726624846458, -0.0166284702718258, 0.0174473635852337, 33632, 32515, 23220, -54.6299858093262
1471878168.142, 0.0126523422077298, -0.0153889385983348, 0.017406927421689, 33647, 32516, 23199, NaN
1471878169.142, 0.0203359872102737, -0.0158537328243256, 0.0166072025895119, 33653, 32511, 23193, NaN
1471878170.142, 0.0280037522315979, -0.0160049702972174, 0.016693813726306, 33630, 32515, 23200, NaN
1471878171.142, 0.0350742600858212, -0.0157835390418768, 0.0166239179670811, 33636, 32519, 23208, NaN
1471878172.142, 0.0415600538253784, -0.0146075366064906, 0.017132680863142, 33632, 32517, 23196, NaN
1471878173.142, 0.047227967530489, -0.014994696713984, 0.0168408416211605, 33632, 32508, 23208, NaN
1471878174.142, 0.0518593639135361, -0.0138037726283073, 0.0158618316054344, 33638, 32509, 23205, NaN
1471878175.142, 0.0545573495328426, -0.0137815130874515, 0.0154321724548936, 33647, 32515, 23215, NaN
1471878176.142, 0.0562225580215454, -0.013318071141839, 0.0150785660371184, 33621, 32499, 23219, NaN
1471878177.142, 0.0578281208872795, -0.0140244588255882, 0.0149562871083617, 33644, 32516, 23203, NaN
1471878178.142, 0.0581434294581413, -0.014436699450016, 0.0157407000660896, 33629, 32513, 23216, NaN
1471878179.142, 0.0565541088581085, -0.0145868100225925, 0.0151659725233912, 33635, 32514, 23203, NaN
1471878180.142, 0.0543166249990463, -0.015157244168222, 0.0152472769841552, 33631, 32530, 23216, NaN
1471878181.142, 0.051004558801651, -0.0143510922789574, 0.0151594216004014, 33628, 32507, 23216, NaN
1471878182.142, 0.0471711494028568, -0.0150137152522802, 0.0157908815890551, 33627, 32507, 23219, NaN
1471878183.142, 0.0425501577556133, -0.0148149700835347, 0.0161932222545147, 33625, 32512, 23211, NaN
1471878184.152, 0.037590466439724, -0.0146827828139067, 0.0157175995409489, 33631, 32509, 23195, NaN
1471878184.152, 0.0322321429848671, -0.0149438763037324, 0.0157684665173292, 33634, 32509, 23210, NaN
1471878185.16, 0.0265581104904413, -0.0152748320251703, 0.0151930218562484, 33627, 32504, 23224, NaN
1471878186.16, 0.0207262188196182, -0.0156307630240917, 0.0151206264272332, 33629, 32508, 23220, NaN
1471878187.16, 0.0150899672880769, -0.0153937386348844, 0.0154676036909223, 33638, 32508, 23210, NaN
1471878188.16, 0.00935709662735462, -0.0155902709811926, 0.015940485522151, 33627, 32511, 23214, NaN
1471878188.16, 0.00340533815324306, -0.0166494976729155, 0.0159679092466831, 33649, 32517, 23206, NaN
1471878189.168, -0.00205184705555439, -0.0163411237299442, 0.0167020931839943, 33617, 32516, 23207, NaN
1471878190.168, -0.00726926885545254, -0.015750901773572, 0.0176358129829168, 33631, 32517, 23217, NaN
1471878191.168, -0.0121897524222732, -0.0153144476935267, 0.0177187100052834, 33630, 32503, 23207, NaN
1471878192.168, -0.0162005256861448, -0.0154129378497601, 0.0167513284832239, 33630, 32508, 23219, NaN
1471878192.168, -0.0201234146952629, -0.0156236374750733, 0.0161787625402212, 33638, 32512, 23202, NaN
1471878193.174, -0.02308689057827, -0.0159324798732996, 0.0159022621810436, 33635, 32505, 23201, NaN
1471878194.174, -0.0256419125944376, -0.015848470851779, 0.0161078367382288, 33640, 32499, 23204, NaN
1471878195.174, -0.0278915464878082, -0.0151088610291481, 0.0158092621713877, 33641, 32513, 23203, NaN
1471878196.174, -0.0290990341454744, -0.0149746825918555, 0.0153469853103161, 33638, 32511, 23211, NaN
1471878196.174, -0.0304453689604998, -0.015685873106122, 0.0160824116319418, 33631, 32520, 23210, NaN
1471878197.178, -0.0316739454865456, -0.0149903008714318, 0.0157155431807041, 33644, 32523, 23204, NaN
1471878198.178, -0.0324535183608532, -0.0153868664056063, 0.0158512219786644, 33625, 32509, 23211, NaN
1471878199.178, -0.0336505770683289, -0.0146793778985739, 0.0157769750803709, 33643, 32512, 23196, NaN
1471878200.178, -0.0337910912930965, -0.0151537442579865, 0.0155774196609855, 33631, 32514, 23208, NaN
1471878200.178, -0.031976480036974, -0.0149973286315799, 0.0155905010178685, 33638, 32509, 23201, NaN
1471878201.18, -0.0274417940527201, -0.0148213757202029, 0.0156007800251245, 33634, 32516, 23209, NaN
1471878202.18, -0.0205375533550978, -0.0145595669746399, 0.0155814792960882, 33640, 32513, 23203, NaN
1471878203.18, -0.013479370623827, -0.0147204715758562, 0.0154249612241983, 33634, 32497, 23203, NaN
1471878204.18, -0.00706238392740488, -0.0145427556708455, 0.0151568567380309, 33639, 32515, 23209, NaN
1471878205.18, 9.63182901614346e-05, -0.0145490812137723, 0.0153245721012354, 33623, 32509, 23226, NaN
1471878206.18, 0.00713933212682605, -0.0147691192105412, 0.0151339014992118, 33632, 32511, 23203, NaN
1471878207.18, 0.0142889451235533, -0.0144643681123853, 0.0158496461808681, 33626, 32515, 23225, NaN
1471878208.188, 0.021233843639493, -0.015325766056776, 0.0152914505451918, 33637, 32516, 23208, NaN
1471878209.178, 0.0266323368996382, -0.0151142217218876, 0.0155726037919521, 33627, 32515, 23208, NaN
1471878210.186, 0.0317022725939751, -0.0152308698743582, 0.0152449291199446, 33627, 32504, 23213, NaN
1471878211.186, 0.0359969399869442, -0.0149379363283515, 0.015807906165719, 33635, 32508, 23202, NaN
1471878212.186, 0.0394688956439495, -0.015289057046175, 0.0161365419626236, 33631, 32514, 23204, NaN
1471878213.186, 0.0406766571104527, -0.0149104101583362, 0.0155940959230065, 33635, 32520, 23215, NaN
1471878214.186, 0.0404316633939743, -0.0146419033408165, 0.016453605145216, 33635, 32520, 23203, NaN
1471878215.186, 0.0346214137971401, -0.0150146223604679, 0.016571557149291, 33633, 32504, 23209, NaN